DW3478 Weather Reports


time (UTC)temp
C
wind
direction
speed
KPH
gust
KPH
rain 1hr
cm
rain 24hr
cm
rain mn
cm
humidity
%
barometer
mb
20181023093810 20 108 4.8 9.7 0.00 0.46 0.46 74 1016.5
20181023091809 20 108 3.2 8.0 0.00 0.46 0.46 73 1016.3
20181023090809 20 108 1.6 4.8 0.00 0.46 0.46 75 1016.2
20181023085810 20 108 3.2 4.8 0.03 0.46 0.46 77 1016.1
20181023084809 20 108 3.2 8.0 0.03 0.46 0.46 75 1016.0
20181023082810 19 108 1.6 4.8 0.03 0.48 0.46 77 1015.9
20181023080810 18 108 6.4 8.0 0.03 0.51 0.46 78 1015.6
20181023075810 18 108 3.2 4.8 0.00 0.48 0.43 78 1015.6
20181023072810 18 108 4.8 8.0 0.00 0.48 0.43 78 1015.2
20181023071809 18 108 8.0 9.7 0.00 0.48 0.43 78 1014.9
20181023070810 18 108 4.8 4.8 0.00 0.48 0.43 78 1014.9
20181023065810 18 108 4.8 4.8 0.00 0.48 0.43 78 1014.9
20181023064809 18 108 3.2 4.8 0.00 0.48 0.43 78 1014.8
20181023061809 18 108 4.8 8.0 0.00 0.48 0.43 78 1014.6
20181023055810 18 108 3.2 8.0 0.00 0.48 0.43 79 1014.6
20181023053809 18 108 4.8 9.7 0.00 0.48 0.43 79 1014.6
20181023051809 18 108 3.2 4.8 0.00 0.48 0.43 79 1014.6
20181023050810 18 108 4.8 4.8 0.00 0.48 0.43 78 1014.6
20181023045810 18 108 1.6 4.8 0.00 0.48 0.43 77 1014.5
20181023044810 18 108 0.0 8.0 0.00 0.48 0.43 77 1014.4
20181023043810 18 108 3.2 8.0 0.00 0.48 0.43 79 1014.4
20181023042809 18 108 4.8 9.7 0.00 0.48 0.43 79 1014.4
20181023041809 18 108 4.8 8.0 0.00 0.48 0.43 79 1014.3
20181023040809 18 108 1.6 4.8 0.00 0.48 0.43 79 1014.4
20181023035810 18 108 6.4 9.7 0.00 0.48 0.43 80 1014.4
20181023034809 18 108 4.8 9.7 0.00 0.48 0.43 80 1014.4
20181023033809 18 108 4.8 8.0 0.00 0.48 0.43 80 1014.4
20181023032810 18 108 8.0 16.1 0.00 0.48 0.43 81 1014.5
20181023031809 18 108 1.6 9.7 0.00 0.48 0.43 81 1014.4
20181023023809 18 108 4.8 8.0 0.15 0.48 0.43 81 1014.4
20181023021810 18 108 6.4 19.3 0.23 0.48 0.43 82 1014.4
20181023020810 17 112 6.4 16.1 0.23 0.48 0.43 82 1014.5
20181023014809 17 112 8.0 19.3 0.20 0.43 0.41 81 1014.4
20181023013809 17 113 8.0 16.1 0.10 0.33 0.30 80 1014.5
20181023012810 18 113 3.2 9.7 0.05 0.28 0.23 78 1014.5
20181023011811 17 113 8.0 14.5 0.00 0.23 0.20 78 1014.3
20181023010809 17 113 8.0 14.5 0.13 0.23 0.20 78 1014.3
20181023005809 17 113 8.0 11.3 0.20 0.23 0.20 79 1014.3
20181023001810 17 121 8.0 19.3 0.20 0.23 0.20 84 1014.5
20181023000809 18 127 14.5 32.2 0.08 0.13 0.08 82 1014.7
20181022234809 18 134 8.0 20.9 0.00 0.05 0.00 77 1014.6
20181022230822 18 190 12.9 19.3 0.00 0.05 0.00 77 1014.8
20181022225810 18 200 9.7 19.3 0.00 0.05 0.05 77 1014.8
20181022220809 18 200 11.3 19.3 0.00 0.05 0.05 77 1014.8
20181022214809 18 200 8.0 14.5 0.00 0.05 0.05 77 1014.6
20181022205810 18 200 0.0 4.8 0.00 0.05 0.05 77 1014.4
20181022202810 18 200 4.8 8.0 0.00 0.05 0.05 80 1014.1
20181022201809 18 200 3.2 8.0 0.00 0.05 0.05 82 1014.1
20181022195809 18 200 3.2 8.0 0.00 0.05 0.05 82 1014.0
20181022193810 18 200 3.2 4.8 0.00 0.05 0.05 82 1013.7
20181022185810 18 200 3.2 9.7 0.00 0.05 0.05 81 1013.3
20181022184810 18 200 3.2 8.0 0.00 0.05 0.05 81 1013.2
20181022183809 19 200 3.2 8.0 0.00 0.05 0.05 80 1013.1
20181022181810 19 200 6.4 9.7 0.00 0.05 0.05 80 1012.9
20181022174811 20 200 6.4 14.5 0.00 0.05 0.05 79 1013.0
20181022173809 20 200 8.0 14.5 0.00 0.05 0.05 77 1012.9
20181022171845 20 200 4.8 9.7 0.00 0.05 0.05 79 1012.8
20181022165811 19 200 8.0 11.3 0.00 0.05 0.05 80 1012.7
20181022164810 19 200 8.0 14.5 0.00 0.05 0.05 81 1012.7
20181022163809 19 200 8.0 19.3 0.00 0.05 0.05 82 1012.6
20181022162810 20 200 11.3 19.3 0.00 0.05 0.05 81 1012.6
20181022161810 20 200 11.3 22.5 0.00 0.05 0.05 80 1012.4
20181022160809 20 200 12.9 22.5 0.00 0.05 0.05 81 1012.5
20181022155810 20 200 16.1 22.5 0.00 0.05 0.05 80 1012.6
20181022154810 20 200 8.0 16.1 0.00 0.05 0.05 79 1012.6
20181022153809 20 200 8.0 14.5 0.00 0.05 0.05 76 1012.5
20181022152810 20 200 6.4 14.5 0.00 0.05 0.05 76 1012.5
20181022151811 20 200 8.0 19.3 0.00 0.05 0.05 78 1012.3
20181022150810 20 201 8.0 16.1 0.00 0.05 0.05 77 1012.4
20181022144810 20 201 8.0 14.5 0.00 0.05 0.05 79 1012.4
20181022143809 20 201 4.8 11.3 0.00 0.05 0.05 78 1012.4
20181022142810 20 201 8.0 12.9 0.00 0.05 0.05 78 1012.4
20181022140811 19 201 4.8 9.7 0.00 0.05 0.05 81 1012.5
20181022135810 20 201 4.8 9.7 0.00 0.05 0.05 78 1012.5
20181022133809 20 201 3.2 9.7 0.00 0.05 0.05 76 1012.5
20181022132810 20 201 3.2 9.7 0.00 0.05 0.05 77 1012.8
20181022130809 20 201 3.2 9.7 0.00 0.05 0.05 77 1013.1
20181022125940 20 201 1.6 9.7 0.00 0.05 0.05 77 1013.3
20181022121810 20 201 6.4 14.5 0.00 0.05 0.05 77 1013.6
20181022112809 19 201 8.0 11.3 0.00 0.05 0.05 76 1014.0
20181022111810 20 201 8.0 11.3 0.00 0.05 0.05 75 1014.0
20181022104809 20 201 4.8 14.5 0.00 0.05 0.05 75 1014.0
20181022103809 19 201 8.0 11.3 0.00 0.05 0.05 74 1014.1
20181022095809 19 201 8.0 9.7 0.00 0.05 0.05 74 1014.1